Location: Newark
(37.9800°N, 91.3000°W)
Time: 22:45:16
(UTC+00:00)

NOAA 19 - Pass Details

Date: 06 December 2019
Orbit: 840 x 862 km, 99.2° (Epoch: 21 January)

Event Time Altitude Azimuth Distance (km) Brightness Sun altitude
Rises 10:35:40 0° 31° (NNE) 3,441 8.7 -29.1°
Reaches altitude 10° 10:38:49 10° 50° (NE) 2,496 8.1 -28.4°
Maximum altitude 10:42:37 19° 93° (E) 1,939 7.9 -27.7°
Drops below altitude 10° 10:46:23 10° 137° (SE) 2,475 8.3 -27.0°
Sets 10:49:28 0° 155° (SSE) 3,402 8.8 -26.4°
